Weather Roundup
Issued by NWS Chicago, IL

Home | Current Version | Previous Version | Graphics & Text | Print | Product List | Glossary On
Versions: 1 2 3 4 5 6 7 8 9 10 11 12 13 14 15 16 17 18 19 20 21 22 23 24 25 26 27 28 29 30 31 32 33 34 35 36 37 38 39 40 41 42 43 44 45 46 47 48 49 50
000
NZUS59 KLOT 281710
HRRLOT

CHICAGO AREA WEATHER ROUNDUP
NATIONAL WEATHER SERVICE CHICAGO/ROMEOVILLE IL
1100 AM CST WED JAN 28 2015

NOTE: "FAIR" INDICATES FEW OR NO CLOUDS BELOW 12,000 FEET WITH NO
SIGNIFICANT WEATHER AND/OR OBSTRUCTIONS TO VISIBILITY.

* THESE STATIONS ARE NOT UNDER NWS QUALITY CONTROL. THEY ALSO MAY NOT
  REPORT WEATHER SUCH AS PRECIPITATION OR FOG.

ILZ005-006-012>014-019>023-281800-
NORTHEAST ILLINOIS

CITY           SKY/WX    TMP DP  RH WIND       PRES   REMARKS
OHARE          PTSUNNY   30  14  51 S14       30.23F WCI  19
MIDWAY         PTSUNNY   31  16  54 S13       30.24F WCI  21
AURORA         MOSUNNY   30  20  66 SE14      30.23F WCI  19
LANSING*       SUNNY     30  18  60 S14       30.27F WCI  20
JOLIET*        MOSUNNY   30  18  60 S9G16     30.25F WCI  22
WAUKEGAN       MOSUNNY   31  15  52 SE8       30.22F WCI  23
DUPAGE AIRPORT SUNNY     30  18  60 S20       30.22F WCI  17
WHEELING       MOSUNNY   30  13  49 S10       30.25F WCI  21
KANKAKEE*      MOSUNNY   31  21  66 S10       30.27F WCI  22
MORRIS*        MOSUNNY   30  22  73 S13       30.23F WCI  20
LEWIS AIRPORT* MOSUNNY   31  19  63 S14       30.24F WCI  20
NORTHERLY IS     N/A     30  15  53 SE10        N/A  WCI  21
$$

WIZ051-052-058>065-066-070>072-281800-
SOUTHEAST WISCONSIN

CITY           SKY/WX    TMP DP  RH WIND       PRES   REMARKS
MILWAUKEE      PTSUNNY   31  20  63 S13       30.22F WCI  21
KENOSHA*       MOSUNNY   31  19  61 S9        30.22F WCI  23
RACINE*        MOSUNNY   30  18  60 S14       30.24F WCI  19
BURLINGTON     MOSUNNY   29  19  65 S13       30.20F WCI  19
WAUKESHA       SUNNY     28  19  69 SE14      30.20F WCI  17
WEST BEND      MOSUNNY   30  21  69 S10G16    30.19F WCI  21
$$

INZ001>003-010>013-019-020-281800-
NORTHWEST INDIANA

CITY           SKY/WX    TMP DP  RH WIND       PRES   REMARKS
GARY*          NOT AVBL
MICHIGAN CITY* NOT AVBL
RENSSELAER*    NOT AVBL
VALPARAISO     SUNNY     28  16  60 S15       30.28F WCI  16
$$

LMZ740>746-281800-
SOUTHERN LAKE MICHIGAN

STATION/POSITION TIME  SKY/WX   TEMP WIND        PRES    VSBY
                                AIR  DIR/SP/G
                 (UTC)          (F)  (DEG/KT/KT) (MB)    (MI)
HARRISON CRIB    1700            28  180/ 18/ 22   N/A
BURNHAM HARBOR   1700            30  170/ 14       N/A
CALUMET HARBOR   1700            29  170/ 13/ 18   N/A
BURNS HARBOR     NOT AVBL
MICHIGAN CITY    1700            28  140/ 12/ 14   N/A
$$

ABBREVIATIONS USED IN REMARKS
   TC - TEMPERATURE IN CELSIUS
  WCI - WIND CHILL INDEX
   HX - HEAT INDEX
  VSB - VISIBILITY
$$


USA.gov is the U.S. government's official web portal to all federal, state and local government web resources and services.